Regional Weather Roundup
Issued by NWS Upton, NY

Current Version | Previous Version | Text Only | Print | Product List | Glossary On
Versions: 1 2 3 4 5 6 7 8 9 10 11 12 13 14 15 16 17 18 19 20 21 22 23 24 25 26 27
000
ASUS41 KOKX 191305
RWROKX

REGIONAL WEATHER ROUNDUP
NATIONAL WEATHER SERVICE NEW YORK NY
900 AM EDT SAT APR 19 2014

NOTE: "FAIR" INDICATES FEW OR NO CLOUDS BELOW 12,000 FEET WITH NO
SIGNIFICANT WEATHER AND/OR OBSTRUCTIONS TO VISIBILITY.

NYZ071-072-176-178-NJZ106-104-191400-
NEW YORK CITY METRO AREA


CITY           SKY/WX    TMP DP  RH WIND       PRES   REMARKS
CENTRAL PARK   SUNNY     49  35  58 CALM      30.29R
LAGUARDIA APRT PTSUNNY   49  36  61 NW10      30.26S
KENNEDY INTL   PTSUNNY   52  37  56 W6        30.27S
NEWARK/LIBERTY MOSUNNY   51  38  60 VRB3      30.27S
TETERBORO      SUNNY     53  37  54 N6        30.26S
$$

NYZ177-179-078>081-191400-
LONG ISLAND NEW YORK

CITY           SKY/WX    TMP DP  RH WIND       PRES   REMARKS
FARMINGDALE    SUNNY     50  37  61 VRB6      30.25F
ISLIP          MOSUNNY   49  36  61 N7        30.24S
SHIRLEY        SUNNY     49  38  65 NW8       30.26S
WESTHAMPTON    MOSUNNY   48  36  63 NW6       30.26F
MONTAUK POINT    N/A     45  37  73 W9        30.24F
$$

NYZ052-065-067-191400-
HUDSON VALLEY

CITY           SKY/WX    TMP DP  RH WIND       PRES   REMARKS
WHITE PLAINS   SUNNY     50  36  58 NW10      30.25R
NEWBURGH       NOT AVBL
MONTGOMERY     MOSUNNY   51  33  50 NW13      30.27R
POUGHKEEPSIE   MOSUNNY   48  34  58 CALM      30.27R
ALBANY         MOSUNNY   47  33  58 NW13      30.27R
$$

NJZ001-105-106-008-010-013-015-019>022-104-191400-
NEW JERSEY

CITY           SKY/WX    TMP DP  RH WIND       PRES   REMARKS
NEWARK/LIBERTY MOSUNNY   51  38  60 VRB3      30.27S
TETERBORO      SUNNY     53  37  54 N6        30.26S
CALDWELL       SUNNY     51  31  46 VRB3      30.28R
MORRISTOWN     NOT AVBL
SOMERVILLE     SUNNY     52  36  54 NW9       30.26S
LINDEN         FAIR      50  38  63 CALM      30.29S
SUSSEX         MOSUNNY   52  35  52 NW13G22   30.28R
ANDOVER          N/A     50  36  58 NE7       30.29R
TRENTON        MOSUNNY   50  37  61 N7        30.27S
MILLVILLE      CLOUDY    47  42  83 W5        30.29R
ATLANTIC CITY  PTSUNNY   46  41  82 W5        30.28S
WRIGHTSTOWN    PTSUNNY   48  39  70 N5        30.26S
TOMS RIVER     PTSUNNY   48  37  66 NW5       30.28S
BELMAR         MOSUNNY   48  36  61 NW7       30.27S
$$

PAZ047>061-062-071-191400-
EASTERN PENNSYLVANIA

CITY           SKY/WX    TMP DP  RH WIND       PRES   REMARKS
PHILADELPHIA   PTSUNNY   50  37  61 NW3       30.29S
ALLENTOWN      SUNNY     50  36  58 W6        30.29S
SCRANTON       MOSUNNY   47  34  60 NW14      30.32R
$$

CTZ002-004>006-009-010-012-RIZ004-006-007-MAZ004-011-015-191400-
SOUTHERN NEW ENGLAND
 IN CT

CITY           SKY/WX    TMP DP  RH WIND       PRES   REMARKS
BRADLEY INTL   MOSUNNY   46  34  62 CALM      30.23S
HARTFORD       MOSUNNY   46  36  68 S5        30.24S
DANBURY        MOSUNNY   50  34  54 NW13G18   30.26R
WTRBRY/OXFORD  MOSUNNY   46  34  61 NW9       30.26R
BRIDGEPORT     SUNNY     48  36  63 W3        30.25F
MERIDEN        MOSUNNY   47  36  65 SE3       30.24F
NEW HAVEN      MOSUNNY   44  36  73 W3        30.25S
CHESTER        FAIR      48  36  61 NW6       30.23F
GROTON         SUNNY     47  39  74 VRB5      30.22F
WILLIMANTIC    MOSUNNY   48  35  60 NW10      30.23S

 IN RI

CITY           SKY/WX    TMP DP  RH WIND       PRES   REMARKS
PROVIDENCE     MOSUNNY   51  34  52 NW9       30.20F
BLOCK ISLAND   SUNNY     45  37  76 W16       30.22F
WESTERLY       SUNNY     47  36  65 W7        30.23F

 IN MA

CITY           SKY/WX    TMP DP  RH WIND       PRES   REMARKS
BOSTON         SUNNY     50  33  52 W12G22    30.18S
WORCESTER      SUNNY     45  33  63 W17G26    30.18R
WESTFIELD      MOSUNNY   51  31  46 NW15G26   30.23R
PROVINCETOWN   SUNNY     45  37  76 MISG      30.19S
NANTUCKET      MOSUNNY   46  38  73 W16       30.19F
$$

ANZ330-335-338-340-345-350-353-355-191400-
COASTAL MARINE OBSERVATIONS


STATION/POSITION TIME  SKY/WX   TEMP    WIND        PRES    VSBY  WAVE
                                AIR SEA DIR/SP/G                  HT/PER
                 (UTC)          (F)     (DEG/KT/KT) (MB)    (MI)  (FT/S)
NY HARB ENTRANCE 1300            42 43  140/  8/ 10 1024.7
4S FIRE IS       1200               44                N/A           4/11
23SW MTP         1300            42 42  270/ 10/ 14 1023.8          5/10
HUDSON CANYON    1200            43 44  300/  8/ 10 1024.3          6/10
EXECUTION ROCKS  1300            56 42  230/  4/  8   N/A
WESTERN LI SOUND 1300            43     260/  4/  4   N/A           0
CENTRAL LI SOUND 1200            42 42  240/  6/  8   N/A           1
EASTERN LI SOUND NOT AVBL
ROBBINS REEF     1300            47     290/  5/  6   N/A
$$


>>>>>>>>>>>>>>>>>>>>>>>>>>>> KEY <<<<<<<<<<<<<<<<<<<<<<<<<<<
>                                                          <
>     SKY/WX - SKY CONDITION/PRESENT WEATHER               <
>     TMP    - TEMPERATURE IN FAHRENHEIT                   <
>     DP     - DEWPOINT IN FAHRENHEIT                      <
>     RH     - RELATIVE HUMIDITY IN PERCENT                <
>     WIND   - DIRECTION AND SPEED IN MPH                  <
>     PRES   - MEAN SEA LEVEL PRESSURE IN INCHES OF HG     <
>     WCI    - WIND CHILL INDEX                            <
>     VSB    - VISIBILITY IN MILES                         <
>     HX     - HEAT INDEX                                  <
>     TC     - TEMPERATURE IN CELSIUS                      <
>     VRB    - VARIABLE WIND DIRECTION                     <
>                                                          <
>>>>>>>>>>>>>>>>>>>>>>>>>>>> KEY <<<<<<<<<<<<<<<<<<<<<<<<<<<





USA.gov is the U.S. government's official web portal to all federal, state and local government web resources and services.